CW2285 Weather Reports


Display with metric or nautical units.
time (UTC)temp
F
wind
direction
speed
MPH
gust
MPH
rain 1hr
in
rain 24hr
in
rain mn
in
humidity
%
barometer
mb
20260831002002 107 301 4.0 10.0 0.00 0.00 0.00 18 1002.7
20260831001503 107 302 6.0 15.0 0.00 0.00 0.00 18 1002.7
20260831000502 107 296 6.0 15.0 0.00 0.00 0.00 18 1002.6
20260831000003 107 284 8.0 13.0 0.00 0.00 0.00 18 1002.5
20260830235502 107 270 6.0 12.0 0.00 0.00 0.00 18 1002.6
20260830235003 107 334 3.0 8.0 0.00 0.00 0.00 18 1002.5
20260830234503 107 315 3.0 12.0 0.00 0.00 0.00 18 1002.5
20260830234003 107 283 6.0 12.0 0.00 0.00 0.00 18 1002.5
20260830233503 107 296 5.0 12.0 0.00 0.00 0.00 19 1002.6
20260830233003 106 299 1.0 3.0 0.00 0.00 0.00 22 1002.7
20260830232503 106 169 3.0 6.0 0.00 0.00 0.00 20 1002.6
20260830232003 106 142 4.0 8.0 0.00 0.00 0.00 19 1002.7
20260830231502 106 134 4.0 7.0 0.00 0.00 0.00 20 1002.7
20260830231003 106 233 3.0 7.0 0.00 0.00 0.00 20 1002.7
20260830230503 106 206 2.0 6.0 0.00 0.00 0.00 21 1002.8
20260830230003 106 37 1.0 3.0 0.00 0.00 0.00 21 1002.9
20260830225503 106 71 1.0 9.0 0.00 0.00 0.00 20 1003.0
20260830225003 106 16 2.0 3.0 0.00 0.00 0.00 22 1003.0
20260830224503 106 327 4.0 6.0 0.00 0.00 0.00 22 1003.1
20260830224002 106 32 4.0 7.0 0.00 0.00 0.00 21 1003.1
20260830223502 107 73 5.0 10.0 0.00 0.00 0.00 21 1003.2
20260830222502 107 80 7.0 12.0 0.00 0.00 0.00 21 1003.5
20260830222003 107 111 6.0 12.0 0.00 0.00 0.00 21 1003.5
20260830221502 108 75 6.0 12.0 0.00 0.00 0.00 21 1003.6
20260830221002 107 60 2.0 12.0 0.00 0.00 0.00 22 1003.7
20260830220503 106 125 5.0 12.0 0.00 0.00 0.00 22 1003.8
20260830220002 106 147 4.0 6.0 0.00 0.00 0.00 22 1003.9
20260830215002 105 108 1.0 5.0 0.00 0.00 0.00 23 1004.1
20260830214503 105 186 2.0 3.0 0.00 0.00 0.00 24 1004.1
20260830213503 105 147 6.0 8.0 0.00 0.00 0.00 24 1004.5
20260830213003 105 72 3.0 8.0 0.00 0.00 0.00 24 1004.6
20260830212503 105 149 2.0 5.0 0.00 0.00 0.00 21 1004.7
20260830212003 105 108 2.0 7.0 0.00 0.00 0.00 22 1004.7
20260830211503 105 206 3.0 9.0 0.00 0.00 0.00 22 1004.9
20260830210503 104 132 3.0 6.0 0.00 0.00 0.00 24 1005.1
20260830210002 104 138 3.0 12.0 0.00 0.00 0.00 23 1005.1
20260830205503 105 121 7.0 13.0 0.00 0.00 0.00 23 1005.2
20260830205002 104 100 5.0 8.0 0.00 0.00 0.00 23 1005.3
20260830204003 105 111 6.0 9.0 0.00 0.00 0.00 22 1005.5
20260830203502 104 107 3.0 8.0 0.00 0.00 0.00 23 1005.6
20260830202502 104 135 3.0 10.0 0.00 0.00 0.00 25 1005.6
20260830202002 103 228 2.0 7.0 0.00 0.00 0.00 25 1005.7
20260830201503 103 167 3.0 9.0 0.00 0.00 0.00 25 1005.8
20260830201002 103 138 4.0 9.0 0.00 0.00 0.00 25 1005.8
20260830200502 103 75 4.0 12.0 0.00 0.00 0.00 25 1005.9
20260830200002 103 88 6.0 13.0 0.00 0.00 0.00 25 1006.0
20260830195502 103 181 3.0 9.0 0.00 0.00 0.00 26 1006.1
20260830195002 102 107 6.0 12.0 0.00 0.00 0.00 25 1006.2
20260830194502 103 189 5.0 8.0 0.00 0.00 0.00 26 1006.2
20260830194003 102 151 3.0 5.0 0.00 0.00 0.00 25 1006.3
20260830193503 102 216 5.0 8.0 0.00 0.00 0.00 24 1006.6
20260830193003 103 137 6.0 13.0 0.00 0.00 0.00 24 1006.6
20260830192504 103 153 6.0 12.0 0.00 0.00 0.00 25 1006.7
20260830192002 102 112 3.0 9.0 0.00 0.00 0.00 23 1006.7
20260830191503 102 128 5.0 14.0 0.00 0.00 0.00 24 1006.7
20260830191003 102 131 6.0 12.0 0.00 0.00 0.00 23 1006.7
20260830190503 102 73 5.0 10.0 0.00 0.00 0.00 24 1006.8
20260830190002 101 162 5.0 9.0 0.00 0.00 0.00 24 1006.9
20260830185503 101 143 7.0 12.0 0.00 0.00 0.00 23 1007.0
20260830185002 102 102 7.0 8.0 0.00 0.00 0.00 23 1007.1
20260830184503 102 103 6.0 12.0 0.00 0.00 0.00 23 1007.2
20260830184003 102 89 9.0 13.0 0.00 0.00 0.00 22 1007.2
20260830183503 101 108 5.0 10.0 0.00 0.00 0.00 22 1007.2
20260830183002 101 98 5.0 9.0 0.00 0.00 0.00 23 1007.2
20260830182503 102 122 6.0 9.0 0.00 0.00 0.00 23 1007.2
20260830182003 102 95 7.0 12.0 0.00 0.00 0.00 23 1007.3
20260830181503 101 82 5.0 10.0 0.00 0.00 0.00 23 1007.3
20260830180503 101 134 4.0 10.0 0.00 0.00 0.00 23 1007.3
20260830180002 100 128 2.0 7.0 0.00 0.00 0.00 25 1007.2
20260830175503 100 109 3.0 8.0 0.00 0.00 0.00 24 1007.3
20260830175002 100 110 5.0 8.0 0.00 0.00 0.00 26 1007.2
20260830174003 99 147 5.0 8.0 0.00 0.00 0.00 27 1007.2
20260830173503 99 178 4.0 7.0 0.00 0.00 0.00 26 1007.2
20260830173002 100 179 4.0 7.0 0.00 0.00 0.00 26 1007.2
20260830172502 100 92 2.0 6.0 0.00 0.00 0.00 24 1007.2
20260830172002 99 206 3.0 3.0 0.00 0.00 0.00 25 1007.2
20260830171503 98 189 2.0 3.0 0.00 0.00 0.00 24 1007.2
20260830171002 98 161 2.0 3.0 0.00 0.00 0.00 25 1007.2
20260830170502 98 150 2.0 5.0 0.00 0.00 0.00 25 1007.1
20260830170002 99 241 4.0 8.0 0.00 0.00 0.00 25 1007.1
20260830165503 98 230 2.0 8.0 0.00 0.00 0.00 26 1007.0
20260830165003 98 274 1.0 7.0 0.00 0.00 0.00 26 1006.9
20260830164502 98 287 2.0 8.0 0.00 0.00 0.00 26 1006.8
20260830164002 97 276 3.0 8.0 0.00 0.00 0.00 27 1006.8
20260830163502 97 271 5.0 10.0 0.00 0.00 0.00 26 1006.9
20260830163003 97 248 5.0 7.0 0.00 0.00 0.00 27 1006.8
20260830162502 96 277 4.0 9.0 0.00 0.00 0.00 27 1006.8
20260830162002 96 297 4.0 8.0 0.00 0.00 0.00 29 1006.7
20260830161503 95 274 5.0 9.0 0.00 0.00 0.00 28 1006.8
20260830161002 95 288 5.0 10.0 0.00 0.00 0.00 29 1006.8
20260830160503 95 298 3.0 9.0 0.00 0.00 0.00 28 1006.8
20260830160002 95 302 5.0 9.0 0.00 0.00 0.00 27 1006.8
20260830155503 95 312 3.0 9.0 0.00 0.00 0.00 28 1006.8
20260830154503 94 305 5.0 8.0 0.00 0.00 0.00 29 1006.8
20260830154002 94 313 6.0 12.0 0.00 0.00 0.00 29 1006.8
20260830153502 93 291 4.0 10.0 0.00 0.00 0.00 29 1006.9
20260830153003 93 297 6.0 9.0 0.00 0.00 0.00 29 1006.9
20260830152502 93 293 3.0 10.0 0.00 0.00 0.00 30 1007.0
20260830152002 92 297 6.0 12.0 0.00 0.00 0.00 31 1007.0
20260830151502 92 287 6.0 10.0 0.00 0.00 0.00 30 1007.0
20260830151003 92 297 3.0 12.0 0.00 0.00 0.00 31 1007.0
20260830150502 92 291 2.0 7.0 0.00 0.00 0.00 31 1007.0
20260830150002 91 274 4.0 9.0 0.00 0.00 0.00 32 1007.0
20260830145503 91 293 5.0 9.0 0.00 0.00 0.00 32 1006.9
20260830145003 91 285 5.0 8.0 0.00 0.00 0.00 32 1006.8
20260830144502 90 292 3.0 8.0 0.00 0.00 0.00 32 1006.8
20260830143503 90 301 2.0 9.0 0.00 0.00 0.00 32 1006.7
20260830143003 90 320 3.0 9.0 0.00 0.00 0.00 32 1006.7
20260830142502 89 278 3.0 7.0 0.00 0.00 0.00 33 1006.7
20260830142003 89 296 3.0 9.0 0.00 0.00 0.00 33 1006.7
20260830141503 89 267 2.0 6.0 0.00 0.00 0.00 33 1006.6
20260830141003 89 289 4.0 8.0 0.00 0.00 0.00 33 1006.6
20260830140003 88 296 3.0 7.0 0.00 0.00 0.00 34 1006.5
20260830135503 88 308 3.0 8.0 0.00 0.00 0.00 34 1006.5
20260830135003 88 343 2.0 5.0 0.00 0.00 0.00 34 1006.4
20260830134503 88 310 2.0 5.0 0.00 0.00 0.00 34 1006.2
20260830134003 88 4 2.0 6.0 0.00 0.00 0.00 34 1006.2
20260830133502 88 137 1.0 3.0 0.00 0.00 0.00 34 1006.2
20260830133003 88 301 1.0 3.0 0.00 0.00 0.00 34 1006.2
20260830132503 88 301 1.0 3.0 0.00 0.00 0.00 34 1006.1
20260830132003 88 304 1.0 3.0 0.00 0.00 0.00 34 1006.0
20260830131502 88 208 0.0 2.0 0.00 0.00 0.00 34 1006.0
20260830131002 88 208 1.0 3.0 0.00 0.00 0.00 34 1006.0
20260830130502 88 149 1.0 3.0 0.00 0.00 0.00 34 1005.9
20260830130003 89 66 0.0 2.0 0.00 0.00 0.00 33 1005.9
20260830125503 89 329 1.0 3.0 0.00 0.00 0.00 33 1005.9
20260830125003 89 223 0.0 2.0 0.00 0.00 0.00 33 1005.9
20260830123502 89 127 2.0 5.0 0.00 0.00 0.00 33 1005.6
20260830123003 89 78 2.0 3.0 0.00 0.00 0.00 33 1005.6
20260830122502 89 255 2.0 3.0 0.00 0.00 0.00 33 1005.6
20260830122003 90 247 1.0 2.0 0.00 0.00 0.00 33 1005.6
20260830121502 90 247 1.0 3.0 0.00 0.00 0.00 32 1005.6
20260830121003 90 247 1.0 2.0 0.00 0.00 0.00 32 1005.6
20260830120003 90 275 1.0 3.0 0.00 0.00 0.00 32 1005.5
20260830115503 90 282 1.0 3.0 0.00 0.00 0.00 32 1005.5
20260830115003 90 349 2.0 5.0 0.00 0.00 0.00 32 1005.4
20260830114503 90 301 2.0 5.0 0.00 0.00 0.00 31 1005.3
20260830113003 90 280 2.0 6.0 0.00 0.00 0.00 32 1005.2
20260830112003 90 317 3.0 8.0 0.00 0.00 0.00 32 1005.1
20260830111503 90 316 3.0 12.0 0.00 0.00 0.00 32 1005.1
20260830111003 90 330 4.0 9.0 0.00 0.00 0.00 32 1005.1
20260830110502 90 356 7.0 10.0 0.00 0.00 0.00 32 1005.1
20260830110003 90 337 3.0 8.0 0.00 0.00 0.00 32 1005.1
20260830105503 90 323 3.0 10.0 0.00 0.00 0.00 32 1005.0
20260830105003 90 327 3.0 7.0 0.00 0.00 0.00 32 1005.0
20260830104503 90 325 2.0 7.0 0.00 0.00 0.00 32 1005.1
20260830104003 90 317 3.0 9.0 0.00 0.00 0.00 32 1005.1
20260830103503 90 324 4.0 9.0 0.00 0.00 0.00 32 1005.0
20260830103003 90 307 5.0 9.0 0.00 0.00 0.00 33 1004.9
20260830102503 91 320 3.0 8.0 0.00 0.00 0.00 32 1004.8
20260830102003 91 307 5.0 17.0 0.00 0.00 0.00 31 1004.6
20260830101503 91 311 5.0 13.0 0.00 0.00 0.00 31 1004.6
20260830101003 91 298 6.0 12.0 0.00 0.00 0.00 32 1004.6
20260830100003 90 302 3.0 9.0 0.00 0.00 0.00 32 1004.6
20260830095502 90 307 5.0 10.0 0.00 0.00 0.00 32 1004.5
20260830094503 91 297 5.0 10.0 0.00 0.00 0.00 32 1004.3
20260830093503 91 302 3.0 12.0 0.00 0.00 0.00 31 1004.3
20260830093003 91 304 5.0 13.0 0.00 0.00 0.00 32 1004.3
20260830092502 91 301 5.0 12.0 0.00 0.00 0.00 31 1004.5
20260830092003 91 307 5.0 12.0 0.00 0.00 0.00 31 1004.5
20260830091002 91 295 5.0 17.0 0.00 0.00 0.00 32 1004.3
20260830090502 91 298 5.0 12.0 0.00 0.00 0.00 32 1004.5
20260830085502 91 315 4.0 9.0 0.00 0.00 0.00 33 1004.4
20260830085003 91 304 5.0 12.0 0.00 0.00 0.00 33 1004.5
20260830084503 91 307 3.0 8.0 0.00 0.00 0.00 33 1004.6
20260830084003 91 312 3.0 9.0 0.00 0.00 0.00 33 1004.6
20260830083003 92 305 6.0 12.0 0.00 0.00 0.00 33 1004.5
20260830082502 92 319 5.0 12.0 0.00 0.00 0.00 33 1004.5
20260830082003 92 288 5.0 13.0 0.00 0.00 0.00 33 1004.5
20260830081503 92 302 6.0 12.0 0.00 0.00 0.00 33 1004.5
20260830080502 92 294 7.0 14.0 0.00 0.00 0.00 33 1004.6
20260830080004 92 305 6.0 12.0 0.00 0.00 0.00 33 1004.6
20260830075503 92 303 4.0 10.0 0.00 0.00 0.00 33 1004.6
20260830075002 92 299 5.0 10.0 0.00 0.00 0.00 33 1004.6
20260830074502 92 318 4.0 12.0 0.00 0.00 0.00 33 1004.5
20260830074003 92 313 4.0 9.0 0.00 0.00 0.00 33 1004.5
20260830073502 92 310 4.0 9.0 0.00 0.00 0.00 33 1004.6
20260830073003 92 303 4.0 12.0 0.00 0.00 0.00 33 1004.6
20260830071503 93 301 5.0 10.0 0.00 0.00 0.00 33 1004.6
20260830071002 93 285 5.0 12.0 0.00 0.00 0.00 31 1004.6
20260830070504 93 302 7.0 12.0 0.00 0.00 0.00 31 1004.6
20260830070002 93 291 5.0 12.0 0.00 0.00 0.00 31 1004.7
20260830065503 94 296 5.0 12.0 0.00 0.00 0.00 31 1004.8
20260830064503 94 295 7.0 12.0 0.00 0.00 0.00 31 1004.6
20260830064002 94 281 5.0 13.0 0.00 0.00 0.00 31 1004.6
20260830063503 94 297 5.0 13.0 0.00 0.00 0.00 30 1004.6
20260830063003 94 291 5.0 13.0 0.00 0.00 0.00 31 1004.6
20260830062503 94 305 3.0 9.0 0.00 0.00 0.00 30 1004.6
20260830062003 94 288 5.0 12.0 0.00 0.00 0.00 30 1004.6
20260830061503 94 290 5.0 9.0 0.00 0.00 0.00 31 1004.6
20260830061002 94 305 4.0 8.0 0.00 0.00 0.00 31 1004.6
20260830060503 94 318 4.0 9.0 0.00 0.00 0.00 30 1004.5
20260830060003 94 303 5.0 9.0 0.00 0.00 0.00 30 1004.5
20260830055503 95 303 5.0 13.0 0.00 0.00 0.00 30 1004.5
20260830055003 95 279 3.0 8.0 0.00 0.00 0.00 30 1004.5
20260830054502 95 315 3.0 7.0 0.00 0.00 0.00 29 1004.5
20260830054003 95 315 3.0 6.0 0.00 0.00 0.00 29 1004.5
20260830053503 95 322 5.0 12.0 0.00 0.00 0.00 29 1004.4
20260830053003 95 309 3.0 9.0 0.00 0.00 0.00 29 1004.3
20260830052503 96 324 5.0 12.0 0.00 0.00 0.00 28 1004.3
20260830052003 96 316 4.0 12.0 0.00 0.00 0.00 28 1004.5
20260830051503 96 312 3.0 8.0 0.00 0.00 0.00 28 1004.5
20260830051002 96 302 6.0 17.0 0.00 0.00 0.00 27 1004.4
20260830050502 96 315 5.0 12.0 0.00 0.00 0.00 27 1004.4
20260830050003 96 313 5.0 10.0 0.00 0.00 0.00 27 1004.3
20260830045503 97 310 5.0 12.0 0.00 0.00 0.00 27 1004.3
20260830045002 97 307 8.0 15.0 0.00 0.00 0.00 26 1004.3
20260830044503 97 306 4.0 12.0 0.00 0.00 0.00 26 1004.3
20260830044003 97 315 7.0 13.0 0.00 0.00 0.00 26 1004.3
20260830043503 97 296 6.0 12.0 0.00 0.00 0.00 26 1004.2
20260830043003 97 309 5.0 12.0 0.00 0.00 0.00 25 1004.1
20260830042503 97 317 3.0 7.0 0.00 0.00 0.00 25 1004.0
20260830042002 98 318 4.0 12.0 0.00 0.00 0.00 25 1004.0
20260830041503 98 294 7.0 12.0 0.00 0.00 0.00 25 1004.0
20260830040003 98 298 5.0 12.0 0.00 0.00 0.00 25 1003.6
20260830035502 98 292 10.0 20.0 0.00 0.00 0.00 25 1003.5
20260830035002 98 313 6.0 12.0 0.00 0.00 0.00 25 1003.5
20260830034503 98 308 5.0 12.0 0.00 0.00 0.00 25 1003.5
20260830034002 99 305 6.0 16.0 0.00 0.00 0.00 25 1003.5
20260830033003 99 298 7.0 15.0 0.00 0.00 0.00 25 1003.2
20260830032503 99 307 7.0 14.0 0.00 0.00 0.00 26 1003.1
20260830032003 99 292 6.0 13.0 0.00 0.00 0.00 26 1003.0
20260830031002 100 304 5.0 10.0 0.00 0.00 0.00 25 1003.0
20260830030502 100 302 6.0 13.0 0.00 0.00 0.00 25 1003.0
20260830030002 100 293 6.0 12.0 0.00 0.00 0.00 25 1002.9
20260830025503 101 292 6.0 13.0 0.00 0.00 0.00 25 1002.8
20260830025002 101 284 3.0 12.0 0.00 0.00 0.00 25 1002.7
20260830024503 101 285 3.0 9.0 0.00 0.00 0.00 25 1002.7
20260830023503 101 283 7.0 14.0 0.00 0.00 0.00 25 1002.4
20260830022502 102 305 9.0 20.0 0.00 0.00 0.00 25 1002.4
20260830022003 102 287 10.0 18.0 0.00 0.00 0.00 25 1002.4
20260830021503 102 301 9.0 17.0 0.00 0.00 0.00 25 1002.4
20260830021003 102 276 6.0 18.0 0.00 0.00 0.00 25 1002.4
20260830020503 103 289 9.0 18.0 0.00 0.00 0.00 25 1002.4
20260830020003 103 291 10.0 20.0 0.00 0.00 0.00 24 1002.4
20260830015503 103 295 10.0 17.0 0.00 0.00 0.00 24 1002.4
20260830015003 104 284 9.0 15.0 0.00 0.00 0.00 24 1002.4
20260830014502 104 282 10.0 20.0 0.00 0.00 0.00 24 1002.4
20260830014002 105 295 12.0 20.0 0.00 0.00 0.00 24 1002.3
20260830013503 105 287 10.0 18.0 0.00 0.00 0.00 24 1002.2
20260830012002 106 300 7.0 14.0 0.00 0.00 0.00 24 1002.3
20260830011003 107 291 6.0 13.0 0.00 0.00 0.00 24 1002.2
20260830010502 107 313 3.0 13.0 0.00 0.00 0.00 24 1002.3
20260830005502 107 301 8.0 15.0 0.00 0.00 0.00 24 1002.1
20260830004502 107 286 4.0 8.0 0.00 0.00 0.00 22 1002.2
20260830004004 108 198 2.0 5.0 0.00 0.00 0.00 21 1002.3
20260830003503 108 230 5.0 12.0 0.00 0.00 0.00 20 1002.3
20260830003003 108 215 7.0 10.0 0.00 0.00 0.00 20 1002.1
20260830002503 108 139 2.0 10.0 0.00 0.00 0.00 20 1002.0